SV1BYK-4 Weather Reports


Display with metric or nautical units.
time (UTC)temp
F
wind
direction
speed
MPH
gust
MPH
rain 1hr
in
rain 24hr
in
rain mn
in
humidity
%
barometer
mb
20260506152138 75 238 3.0 9.0 0.00 0.00 0.00 34 1015.4
20260506151238 75 132 4.0 9.0 0.00 0.00 0.00 35 1015.5
20260506150338 75 249 2.0 9.0 0.00 0.00 0.00 35 1015.6
20260506145438 76 254 2.0 11.0 0.00 0.00 0.00 34 1015.7
20260506143638 76 178 3.0 9.0 0.00 0.00 0.00 35 1015.6
20260506141838 76 186 4.0 7.0 0.00 0.00 0.00 37 1015.6
20260506140938 76 253 2.0 11.0 0.00 0.00 0.00 38 1015.7
20260506140038 75 237 3.0 11.0 0.00 0.00 0.00 40 1015.8
20260506135138 75 262 4.0 9.0 0.00 0.00 0.00 41 1015.8
20260506134238 74 229 2.0 11.0 0.00 0.00 0.00 43 1015.9
20260506133338 72 261 9.0 13.0 0.00 0.00 0.00 46 1016.0
20260506132438 75 232 4.0 8.0 0.00 0.00 0.00 44 1015.9
20260506131538 75 225 3.0 11.0 0.00 0.00 0.00 45 1016.0
20260506130638 75 212 3.0 9.0 0.00 0.00 0.00 42 1015.9
20260506125738 75 225 4.0 11.0 0.00 0.00 0.00 41 1015.9
20260506124838 76 120 3.0 11.0 0.00 0.00 0.00 39 1016.0
20260506123938 76 212 4.0 11.0 0.00 0.00 0.00 38 1016.1
20260506123038 75 240 5.0 11.0 0.00 0.00 0.00 42 1016.1
20260506121238 74 239 4.0 9.0 0.00 0.00 0.00 42 1016.2
20260506120338 74 223 4.0 11.0 0.00 0.00 0.00 45 1016.3
20260506115438 74 206 4.0 11.0 0.00 0.00 0.00 43 1016.4
20260506114538 74 177 4.0 9.0 0.00 0.00 0.00 43 1016.4
20260506112738 74 136 4.0 11.0 0.00 0.00 0.00 47 1016.5
20260506111838 74 223 4.0 11.0 0.00 0.00 0.00 46 1016.5
20260506110938 75 112 4.0 9.0 0.00 0.00 0.00 43 1016.5
20260506110038 76 111 4.0 11.0 0.00 0.00 0.00 38 1016.5
20260506105138 77 124 3.0 9.0 0.00 0.00 0.00 38 1016.6
20260506104238 78 227 2.0 11.0 0.00 0.00 0.00 38 1016.6
20260506103338 77 126 4.0 11.0 0.00 0.00 0.00 38 1016.6
20260506102438 76 107 4.0 9.0 0.00 0.00 0.00 37 1016.6
20260506100638 76 124 4.0 8.0 0.00 0.00 0.00 37 1016.7
20260506094838 76 217 4.0 9.0 0.00 0.00 0.00 42 1016.9
20260506093938 76 118 3.0 8.0 0.00 0.00 0.00 42 1016.9
20260506093038 76 231 3.0 8.0 0.00 0.00 0.00 42 1016.9
20260506091238 76 121 4.0 6.0 0.00 0.00 0.00 42 1017.0
20260506085438 76 109 3.0 6.0 0.00 0.00 0.00 41 1016.9
20260506084538 76 242 2.0 6.0 0.00 0.00 0.00 42 1016.8
20260506083638 76 97 2.0 6.0 0.00 0.00 0.00 40 1017.0
20260506082738 76 101 3.0 7.0 0.00 0.00 0.00 38 1017.1
20260506081838 76 100 3.0 7.0 0.00 0.00 0.00 38 1017.0
20260506080938 76 121 2.0 8.0 0.00 0.00 0.00 38 1017.2
20260506073338 74 112 2.0 4.0 0.00 0.00 0.00 41 1017.0
20260506072438 74 234 1.0 4.0 0.00 0.00 0.00 40 1016.9
20260506071538 74 214 1.0 4.0 0.00 0.00 0.00 40 1016.8
20260506070638 72 248 2.0 4.0 0.00 0.00 0.00 43 1016.8
20260506062138 67 266 4.0 4.0 0.00 0.00 0.00 50 1017.0
20260506061238 68 225 2.0 2.0 0.00 0.00 0.00 50 1017.0
20260506060338 69 225 0.0 2.0 0.00 0.00 0.00 48 1017.0
20260506050938 63 265 2.0 4.0 0.00 0.00 0.00 60 1017.0
20260506044238 60 225 1.0 2.0 0.00 0.00 0.00 64 1016.7
20260506043338 60 229 1.0 2.0 0.00 0.00 0.00 65 1016.7
20260506042438 59 225 1.0 2.0 0.00 0.00 0.00 66 1016.6
20260506041538 58 225 0.0 2.0 0.00 0.00 0.00 67 1016.7
20260506040638 58 225 0.0 2.0 0.00 0.00 0.00 67 1016.6
20260506035738 58 225 0.0 2.0 0.00 0.00 0.00 67 1016.5
20260506034838 58 232 1.0 2.0 0.00 0.00 0.00 67 1016.5
20260506033938 58 270 1.0 4.0 0.00 0.00 0.00 66 1016.3
20260506033038 59 266 2.0 4.0 0.00 0.00 0.00 66 1016.3
20260506032138 58 225 0.0 2.0 0.00 0.00 0.00 66 1016.3
20260506031238 58 225 0.0 2.0 0.00 0.00 0.00 66 1016.3
20260506025438 58 225 0.0 2.0 0.00 0.00 0.00 66 1016.3
20260506024538 58 225 0.0 2.0 0.00 0.00 0.00 66 1016.2
20260506022738 58 225 0.0 2.0 0.00 0.00 0.00 66 1016.3
20260506021838 58 225 0.0 2.0 0.00 0.00 0.00 66 1016.3
20260506020938 58 225 0.0 2.0 0.00 0.00 0.00 66 1016.4
20260506020038 59 233 1.0 2.0 0.00 0.00 0.00 66 1016.4
20260506015138 59 248 0.0 2.0 0.00 0.00 0.00 66 1016.6
20260506013338 59 248 0.0 2.0 0.00 0.00 0.00 66 1016.5
20260506010638 60 248 0.0 2.0 0.00 0.00 0.00 65 1016.5
20260506005738 60 0 0.0 0.0 0.00 0.00 0.00 65 1016.5
20260506004838 60 0 0.0 0.0 0.00 0.00 0.00 64 1016.6
20260506003938 61 248 0.0 2.0 0.00 0.00 0.00 64 1016.6
20260506003038 61 248 0.0 2.0 0.00 0.00 0.00 63 1016.7
20260506002138 61 248 0.0 2.0 0.00 0.00 0.00 62 1016.6
20260506000338 62 0 0.0 0.0 0.00 0.00 0.00 62 1016.6
20260505235438 62 248 0.0 2.0 0.00 0.00 0.00 62 1016.7
20260505233638 61 0 0.0 0.0 0.00 0.00 0.00 62 1016.8
20260505232738 61 0 0.0 0.0 0.00 0.00 0.00 62 1016.9
20260505231838 61 0 0.0 0.0 0.00 0.00 0.00 63 1016.9
20260505230938 61 0 0.0 0.0 0.00 0.00 0.00 62 1016.9
20260505230038 61 0 0.0 0.0 0.00 0.00 0.00 62 1017.0
20260505225138 61 0 0.0 0.0 0.00 0.00 0.00 61 1017.0
20260505224238 61 248 0.0 2.0 0.00 0.00 0.00 61 1017.2
20260505223338 62 248 0.0 2.0 0.00 0.00 0.00 60 1017.2
20260505222438 62 0 0.0 0.0 0.00 0.00 0.00 60 1017.2
20260505221538 62 248 0.0 2.0 0.00 0.00 0.00 60 1017.2
20260505220638 62 248 2.0 2.0 0.00 0.00 0.00 59 1017.4
20260505215738 62 248 0.0 4.0 0.00 0.00 0.00 60 1017.3
20260505213938 62 0 0.0 0.0 0.00 0.00 0.00 61 1017.2
20260505213038 63 259 0.0 2.0 0.00 0.00 0.00 60 1017.2
20260505212138 63 270 0.0 2.0 0.00 0.00 0.00 60 1017.3
20260505211238 63 270 1.0 2.0 0.00 0.00 0.00 61 1017.3
20260505210338 63 270 0.0 2.0 0.00 0.00 0.00 60 1017.5
20260505205438 64 270 0.0 2.0 0.00 0.00 0.00 58 1017.3
20260505204538 65 270 0.0 2.0 0.00 0.00 0.00 55 1017.4
20260505203638 65 270 2.0 2.0 0.00 0.00 0.00 55 1017.5
20260505201838 65 270 0.0 2.0 0.00 0.00 0.00 54 1017.5
20260505200938 65 270 2.0 2.0 0.00 0.00 0.00 54 1017.5
20260505200038 65 270 1.0 2.0 0.00 0.00 0.00 54 1017.5
20260505195138 65 270 0.0 2.0 0.00 0.00 0.00 55 1017.5
20260505194238 66 270 2.0 2.0 0.00 0.00 0.00 54 1017.5
20260505193338 66 272 0.0 4.0 0.00 0.00 0.00 55 1017.5
20260505191538 66 270 0.0 2.0 0.00 0.00 0.00 55 1017.5
20260505190638 66 270 0.0 4.0 0.00 0.00 0.00 54 1017.4
20260505185738 66 264 1.0 4.0 0.00 0.00 0.00 54 1017.4
20260505184838 66 261 0.0 4.0 0.00 0.00 0.00 54 1017.2
20260505183938 67 259 2.0 4.0 0.00 0.00 0.00 53 1017.1
20260505183038 67 257 1.0 4.0 0.00 0.00 0.00 53 1017.2
20260505182137 67 271 2.0 4.0 0.00 0.00 0.00 53 1017.0
20260505180338 67 261 3.0 7.0 0.00 0.00 0.00 52 1017.0
20260505175438 67 263 2.0 8.0 0.00 0.00 0.00 53 1016.9
20260505174538 67 261 6.0 8.0 0.00 0.00 0.00 53 1016.9
20260505173638 68 258 2.0 8.0 0.00 0.00 0.00 53 1016.8
20260505172738 68 264 3.0 4.0 0.00 0.00 0.00 51 1016.8
20260505171838 69 276 3.0 7.0 0.00 0.00 0.00 52 1016.8
20260505165137 72 265 2.0 7.0 0.00 0.00 0.00 44 1016.8
20260505164238 72 270 4.0 7.0 0.00 0.00 0.00 46 1016.8
20260505163337 72 270 4.0 8.0 0.00 0.00 0.00 45 1016.8
20260505160638 74 265 6.0 9.0 0.00 0.00 0.00 39 1016.7
20260505153038 77 193 2.0 4.0 0.00 0.00 0.00 31 1016.6